Regional Weather Roundup
Issued by NWS

Home | Current Version | Previous Version | Text Only | Print | Product List | Glossary Off
Versions: 1 2 3 4 5 6 7 8 9 10 11 12 13 14 15 16 17 18 19 20 21 22 23 24 25 26 27 28 29 30 31 32 33 34 35 36 37 38 39 40 41 42 43 44 45 46 47 48 49 50

000
ASUS43 KDTX 260410
RWRMI
MICHIGAN HOURLY REGIONAL WEATHER ROUNDUP
NATIONAL WEATHER SERVICE DETROIT/PONTIAC MI
1200 AM EDT FRI AUG 26 2016

NOTE: "FAIR" INDICATES FEW OR NO CLOUDS BELOW 12,000 FEET WITH NO
SIGNIFICANT WEATHER AND/OR OBSTRUCTION TO VISIBILITY.

MIZ047>049-052>055-059>063-066>070-074>076-081>083-260500-
SOUTHEAST LOWER MICHIGAN

CITY           SKY/WX    TMP DP  RH WIND       PRES   REMARKS
ADRIAN         CLEAR     71  68  90 W5        30.06R
ALMA           CLEAR     64  62  93 W5        30.05R
ANN ARBOR      CLEAR     70  64  81 W7        30.04S
BAD AXE        CLEAR     67  64  90 W6        30.01R
CARO           CLEAR     67  63  89 W5        30.01R
DETROIT CITY   CLEAR     75  66  73 NW6       30.02R
DETROIT        PTCLDY    72  66  81 W7        30.03S
FLINT          CLEAR     70  61  73 W7        30.03S
GROSSE ILE     CLEAR     75  66  75 NW8       30.02S
HILLSDALE      CLEAR     66  64  91 NW5       30.07S
HOWELL         CLEAR     66  62  87 W5        30.05S

CITY           SKY/WX    TMP DP  RH WIND       PRES   REMARKS
JACKSON        CLEAR     66  64  93 W3        30.06S
LAMBERTVILLE   CLEAR     74  69  84 CALM      30.04S
LANSING        CLEAR     64  59  83 SW6       30.06R
LAPEER         FAIR      69  64  85 W6        30.03R
MASON          CLEAR     67  61  80 W5        30.06S
MONROE         CLEAR     72  69  90 W12       30.03R
MT. CLEMENS    CLEAR     74  64  70 W8        30.00S
PONTIAC        CLEAR     70  62  76 W10       30.03S
PORT HURON     CLEAR     70  70 100 W3        30.00S
TRI CITIES     CLEAR     66  61  84 W7        30.03R
MIDLAND        FAIR      66  59  78 CALM      30.02R
TROY           CLEAR     75  63  66 W5        30.04S
SAGINAW HB     CLEAR     68  61  77 W7        30.02R
$$
MIZ043>046-050>051-056>058-064>065-071>073-077>080-260500-
SOUTHWEST LOWER MICHIGAN

CITY           SKY/WX    TMP DP  RH WIND       PRES   REMARKS
BATTLE CREEK   CLEAR     62  62 100 W3        30.08R
BENTON HARBOR  MOCLDY    65  63  93 CALM      30.07R
BIG RAPIDS     CLEAR     61  58  91 CALM      30.04S
COLDWATER      PTCLDY    65  64  98 CALM      30.08R
FREMONT        FAIR      61  60  97 CALM      30.05R
HOLLAND        CLEAR     62  61  96 CALM      30.07R
GRAND RAPIDS   PTCLDY    66  61  84 W7        30.06R
IONIA          FAIR      65  59  82 W6        30.04S
KALAMAZOO      CLEAR     66  61  84 CALM      30.07S
LUDINGTON      CLOUDY    71  65  81 W6        30.03R
MARSHALL       CLEAR     64  63  94 CALM      30.06S
MOUNT PLEASANT CLEAR     66  59  78 W3        30.03S
MUSKEGON       CLOUDY    67  64  90 SW3       30.06R
SOUTH HAVEN    PTCLDY    65  65  98 CALM      30.07R
$$
MIZ016>042-260500-
NORTHERN LOWER MICHIGAN

CITY           SKY/WX    TMP DP  RH WIND       PRES   REMARKS
ALPENA         CLEAR     65  54  67 SW5       29.98S
BEAVER ISLAND  PTCLDY    70  65  86 SW10      29.95S
BELLAIRE       CLEAR     65  60  83 S3        29.99R
CADILLAC       CLEAR     61  57  87 SW6       30.04S
CHARLEVOIX     CLEAR     69  62  80 SW8       30.00R
FRANKFORT      CLEAR     73  64  74 W5        30.00S
GAYLORD        CLEAR     64  55  72 SW8       30.01R
GRAYLING       CLEAR     62  57  83 W5        30.02S
HARBOR SPRINGS CLEAR     67  61  81 W3        29.97R
HOUGHTON LAKE  CLEAR     67  58  72 W9        30.03S
MANISTEE       CLEAR     60  59  96 CALM      30.01S
OSCODA         CLEAR     65  60  83 CALM      29.98S
PELLSTON       CLEAR     68  59  73 SW7       29.96S
ROGERS CITY    CLEAR     65  55  69 SW6       29.97S
TRAVERSE CITY  CLEAR     68  61  78 SW5       29.99R
$$
MIZ007>008-015-260500-
EASTERN UPPER MICHIGAN

CITY           SKY/WX    TMP DP  RH WIND       PRES   REMARKS
KINROSS        CLOUDY    64  61  90 S3        29.95R
MACKINAC ISLAN MOCLDY    66  62  86 S7        29.93S
NEWBERRY       MOCLDY    65  55  68 NW9       29.96R
S. S. MARIE    CLOUDY    63  58  83 CALM      29.94S
MUNISING         N/A     67  56  67 VRB5      29.97R
$$
MIZ004>006-011>014-085-260500-
CENTRAL UPPER MICHIGAN

CITY           SKY/WX    TMP DP  RH WIND       PRES   REMARKS
MANISTIQUE     PTCLDY    63  56  78 N6        29.97R
ESCANABA       CLEAR     65  57  75 NW3       29.99R
MENOMINEE      CLEAR    N/A N/A N/A VRB3      30.02
SAWYER-GWINN   CLEAR     61  55  79 W8        30.01R
$$
MIZ001>003-009>011-084-260500-
WESTERN UPPER MICHIGAN

CITY           SKY/WX    TMP DP  RH WIND       PRES   REMARKS
IRON MOUNTAIN  CLEAR     61  52  72 NW6       30.01R
HOUGHTON       CLEAR     64  56  75 W17       29.96R
COPPER HARBOR    N/A     66  58  75 NW12G21   29.93R
IRONWOOD       CLEAR     58  53  84 W10       30.04R
$$

ABBREVIATIONS USED IN REMARKS
   TC - TEMPERATURE IN CELSIUS
  WCI - WIND CHILL INDEX
   HX - HEAT INDEX
  VSB - VISIBILITY





USA.gov is the U.S. government's official web portal to all federal, state and local government web resources and services.